Regional Weather Roundup
Issued by NWS

Home | Current Version | Previous Version | Graphics & Text | Print | Product List | Glossary On
Versions: 1 2 3 4 5 6 7 8 9 10 11 12 13 14 15 16 17 18 19 20 21 22 23 24 25 26 27 28 29 30 31 32 33 34 35 36 37 38 39 40 41 42 43 44 45 46 47 48 49 50
140
ASUS45 KBOU 202107
RWRCO

WEATHER ROUNDUP FOR COLORADO
NATIONAL WEATHER SERVICE DENVER/BOULDER CO
300 PM MDT WED SEP 20 2017

NOTE: "FAIR" INDICATES FEW OR NO CLOUDS BELOW 12000 FEET WITH NO
SIGNIFICANT WEATHER AND/OR OBSTRUCTIONS TO VISIBILITY.

COZ001>005-013-030-031-202200-
...NORTHWEST COLORADO...

CITY           SKY/WX    TMP DP  RH WIND       PRES   REMARKS
CRAIG          PTSUNNY   74  34  23 MISG      29.89F
HAYDEN         FAIR      65  38  36 N6        29.92F
MEEKER         FAIR      74  30  19 SW18G38   29.90F
RABBIT EARS PA FAIR      52  36  54 W7        30.15S
STEAMBOAT SPGS FAIR      64  37  36 CALM      29.94F
WALDEN         FAIR      63  28  27 SW18G30   30.00F
$$

COZ006>008-011-202200-
...WEST CENTRAL VALLEYS...

CITY           SKY/WX    TMP DP  RH WIND       PRES   REMARKS
GRAND JUNCTION FAIR      80  36  20 NW12      29.84F
MONTROSE       FAIR      79  29  16 SW17G25   29.92F
EAGLE          FAIR      76  31  19 SW18G26   29.93F
RIFLE          FAIR      78  31  17 W20G29    29.85F
DELTA          FAIR      84  28  13 SW14G23   29.88F
NUCLA          FAIR      79  27  14 S20G29    29.98F
$$

COZ017>023-064>068-202200-
...SOUTHWEST COLORADO...

CITY           SKY/WX    TMP DP  RH WIND       PRES   REMARKS
DURANGO        FAIR      74  29  19 W7G18     30.06F
CORTEZ         FAIR      78  28  16 SW13G22   29.99F
PAGOSA SPRINGS FAIR      70  21  15 SW13G20   30.14F
TELLURIDE      FAIR      66  26  21 SE14G22   30.16F
WOLF CREEK PAS FAIR      46  27  46 S21G37    30.38F
$$

COZ009-010-012-014-032>034-037-058>063-202200-
...CENTRAL COLORADO...

CITY           SKY/WX    TMP DP  RH WIND       PRES   REMARKS
ASPEN          FAIR      71  20  14 S12G22    29.99F
BUENA VISTA    FAIR      75  16  11 S12G17    30.00F
COPPER MTN     FAIR      59  18  20 W22G38    30.26F
BERTHOUD PASS  FAIR      48  41  76 SW15G23   30.29R
COTTONWOOD PAS FAIR      68  10  10 W18G36    30.13F
GUNNISON       FAIR      73  30  20 W13G22    30.01F
KREMMLING      FAIR      79  23  12 SW16G25   29.96F
LEADVILLE      FAIR      63  15  15 SW17G24   30.11F
MONARCH PASS   FAIR      54  23  30 SW25G33   30.40S
SALIDA         FAIR      78  22  12 S13G25    30.05F
SUNLIGHT       FAIR      59  30  33 SW17G32   30.21S
WILKERSON PASS FAIR      61  18  18 SW15G26   30.23F
$$

COZ069>075-202200-
...SAN LUIS VALLEY/SANGRE DE CRISTO MOUNTAINS...

CITY           SKY/WX    TMP DP  RH WIND       PRES   REMARKS
ALAMOSA        FAIR      76  26  15 SW23G33   30.05F
DEL NORTE      FAIR      71  28  19 SW21G31   30.07S
LA VETA PASS   FAIR      64  27  24 MISG      30.31F
SAGUACHE       FAIR      73  30  20 S17G24    30.02F
$$

COZ035-036-038>040-202200-
...NORTHERN COLORADO FRONT RANGE...

CITY           SKY/WX    TMP DP  RH WIND       PRES   REMARKS
DENVER INTL AP FAIR      78  28  16 SE12      29.84F
DMNS CITY PARK   N/A     75  32  20 N10       29.84F
AURORA         MOSUNNY   76  30  18 S7        29.86F
FRONT RANGE AP MOSUNNY   79  27  14 SE23G29   29.87F
ERIE MUNI ARPT FAIR      73  32  22 NW6       29.90F
BOULDER MUN AP FAIR      72  32  23 CALM      29.86F
CENTENNIAL     FAIR      74  28  18 SW10      29.85F
BROOMFIELD     NOT AVBL
FORT COLLINS   FAIR      77  35  21 SW9       29.84F
LONGMONT       FAIR      76  35  21 CALM      29.86F
$$

COZ041-046-047-076>085-087-088-202200-
...PIKES PEAK/PALMER DIVIDE AND SOUTHERN FOOTHILLS...

CITY           SKY/WX    TMP DP  RH WIND       PRES   REMARKS
COLO. SPRINGS  FAIR      69  29  22 S26G33    29.97F
A. F. ACADEMY  FAIR      67  27  21 S21G30    29.96
SCHRIEVER AFB  FAIR      66  26  22 S18G25    29.99
CHEYENNE MTN   NOT AVBL
ELLICOTT         N/A    N/A N/A N/A S15G23    29.98F
FALCON         FAIR      65  25  21 MISG      30.01F
FORT CARSON    FAIR      69  28  21 SE18      29.96F
LIMON          FAIR      71  27  19 S20G35    29.94F
MONUMENT HILL  FAIR      64  30  27 S24G40    29.96F
CANON CITY     SUNNY     73  32  21 E9        29.95F
WALSENBURG     FAIR      82  32  16 SE13G22   29.93F
TRINIDAD       FAIR      80  35  19 S18       29.94F
$$

COZ042>045-048>051-090-091-202200-
...NORTHEAST COLORADO...

CITY           SKY/WX    TMP DP  RH WIND       PRES   REMARKS
GREELEY ARPT   FAIR      78  32  18 SE18G24   29.83F
AKRON          FAIR      74  26  16 S22G30    29.90F
BURLINGTON     FAIR      76  30  18 S18       29.93F
WRAY           FAIR      79  25  13 SE12G18   29.90F
YUMA           FAIR      72  30  21 S18       29.90F
STERLING       FAIR      77  32  19 S20G26    29.86F
HOLYOKE        NOT AVBL
FORT MORGAN    FAIR      76  23  14 SE21G30   29.88F
$$

COZ086-089-092>099-202200-
...SOUTHEAST COLORADO...

CITY           SKY/WX    TMP DP  RH WIND       PRES   REMARKS
PUEBLO         FAIR      77  30  17 SE17      29.90F
LA JUNTA       FAIR      78  29  16 SE14G21   29.91F
LAMAR          FAIR      78  31  17 SE12G21   29.91F
SPRINGFIELD      N/A     73  36  25 SE12      29.96F
$$




USA.gov is the U.S. government's official web portal to all federal, state and local government web resources and services.